Weather History for Altus, OK

Change the Weather History Date:

Wednesday, February 20, 2013

  Actual Average (KLTS) Record (KLTS)
Temperature  
Mean Temperature 42 °F -  
Max Temperature 48 °F 54 °F 61 °F (2014)
Min Temperature 35 °F 32 °F 31 °F (2014)
Degree Days  
Heating Degree Days 24    
Moisture  
Dew Point 36 °F    
Average Humidity 85    
Maximum Humidity 100    
Minimum Humidity 37    
Precipitation  
Precipitation 0.16 in - - ()
Sea Level Pressure  
Sea Level Pressure 29.99 in    
Wind  
Wind Speed 20 mph (SE)    
Max Wind Speed 33 mph    
Max Gust Speed 44 mph    
Visibility 6 miles    
Events Rain , Snow    
Averages and records for this station are not official NWS values.
T = Trace of Precipitation, MM = Missing Value Source: NWS Daily Summary

Daily Weather History Graph

Daily Weather History Graph

Search for Another Location

Airport:

Trip Planner

Search our weather history database for the weather conditions in past years. The results will help you decide how hot, cold, wet, or windy it might be!

Date:

Astronomy

Feb. 20, 2013 Rise Set
Actual Time 7:17 AM CST 6:25 PM CST
Civil Twilight 6:51 AM CST 6:51 PM CST
Nautical Twilight 6:22 AM CST 7:20 PM CST
Astronomical Twilight 5:52 AM CST 7:49 PM CST
Moon 1:55 PM CST (2/20) 3:31 AM CST (2/20)
Length of Visible Light 11h 59m
Length of Day
11h 08m
Waxing Gibbous, 76% of the Moon is Illuminated
Feb 20
Waxing Gibbous
Feb 25
Full
Mar 4
Last Quarter
Mar 11
New
Mar 19
First Quarter

Hourly Weather History & Observations

Time (CST) Temp. Windchill Dew Point Humidity Pressure Visibility Wind Dir Wind Speed Gust Speed Precip Events Conditions
12:15 AM 48.2 °F - 23.0 °F 37% 30.13 in 10.0 mi SE 18.4 mph 24.2 mph N/A   Overcast
12:55 AM 46.4 °F 39.0 °F 30.2 °F 53% 30.13 in 10.0 mi SSE 19.6 mph 25.3 mph N/A   Light Drizzle
1:15 AM 44.6 °F 36.9 °F 32.0 °F 61% 30.12 in 10.0 mi SSE 18.4 mph - N/A Rain Light Rain
1:35 AM 44.6 °F 38.1 °F 33.8 °F 66% 30.12 in 10.0 mi SE 13.8 mph - N/A   Light Drizzle
2:15 AM 42.8 °F 35.1 °F 35.6 °F 76% 30.12 in 10.0 mi SE 16.1 mph 21.9 mph N/A Rain Light Rain
2:35 AM 42.8 °F 34.8 °F 35.6 °F 76% 30.12 in 10.0 mi SE 17.3 mph - N/A   Drizzle
2:55 AM 41.0 °F 33.1 °F 35.6 °F 81% 30.11 in 7.0 mi SE 15.0 mph - 0.01 in Rain Rain
3:15 AM 41.0 °F 33.1 °F 35.6 °F 81% 30.10 in 10.0 mi SE 15.0 mph - 0.01 in Rain Rain
3:35 AM 41.0 °F 33.1 °F 37.4 °F 87% 30.10 in 10.0 mi SE 15.0 mph - 0.02 in Rain Light Rain
3:55 AM 41.0 °F 33.1 °F 37.4 °F 87% 30.10 in 7.0 mi SE 15.0 mph - 0.03 in Rain Light Rain
4:15 AM 41.0 °F 32.8 °F 37.4 °F 87% 30.09 in 7.0 mi SE 16.1 mph - 0.01 in Rain Rain
4:35 AM 41.0 °F 32.5 °F 37.4 °F 87% 30.08 in 7.0 mi ESE 17.3 mph 21.9 mph 0.02 in Rain Light Rain
4:55 AM 41.0 °F 32.8 °F 37.4 °F 87% 30.09 in 5.0 mi SE 16.1 mph 23.0 mph 0.04 in Rain Rain
5:15 AM 41.0 °F 32.5 °F 37.4 °F 87% 30.09 in 5.0 mi SE 17.3 mph 25.3 mph 0.02 in Rain Light Rain
5:35 AM 41.0 °F 32.2 °F 37.4 °F 87% 30.09 in 7.0 mi SE 18.4 mph 26.5 mph 0.03 in Rain Light Rain
5:55 AM 41.0 °F 31.9 °F 37.4 °F 87% 30.08 in 5.0 mi SE 19.6 mph 25.3 mph 0.05 in Rain Light Rain
6:15 AM 41.0 °F 31.9 °F 37.4 °F 87% 30.07 in 5.0 mi SE 19.6 mph 25.3 mph 0.02 in Rain Light Rain
6:35 AM 41.0 °F 31.6 °F 37.4 °F 87% 30.06 in 5.0 mi SE 20.7 mph 27.6 mph 0.03 in Rain Light Rain
7:15 AM 41.0 °F 31.9 °F 37.4 °F 87% 30.07 in 10.0 mi SE 19.6 mph - N/A Rain Rain
7:35 AM 41.0 °F 31.1 °F 37.4 °F 87% 30.06 in 7.0 mi SE 23.0 mph 26.5 mph N/A Rain Rain
7:55 AM 41.0 °F 31.6 °F 37.4 °F 87% 30.06 in 7.0 mi SE 20.7 mph 25.3 mph N/A Rain Rain
8:15 AM 41.0 °F 31.4 °F 37.4 °F 87% 30.08 in 10.0 mi SE 21.9 mph - N/A Rain Light Rain
8:35 AM 41.0 °F 31.4 °F 37.4 °F 87% 30.09 in 10.0 mi SE 21.9 mph 26.5 mph N/A   Overcast
8:55 AM 41.0 °F 31.9 °F 37.4 °F 87% 30.08 in 10.0 mi SE 19.6 mph 26.5 mph N/A   Overcast
9:15 AM 41.0 °F 31.1 °F 37.4 °F 87% 30.06 in 10.0 mi SE 23.0 mph 32.2 mph N/A   Overcast
9:35 AM 41.0 °F 31.4 °F 37.4 °F 87% 30.06 in 10.0 mi SE 21.9 mph 29.9 mph N/A   Overcast
9:55 AM 41.0 °F 30.7 °F 37.4 °F 87% 30.05 in 10.0 mi ESE 25.3 mph 32.2 mph N/A   Overcast
10:15 AM 41.0 °F 30.9 °F 37.4 °F 87% 30.05 in 10.0 mi SE 24.2 mph 28.8 mph N/A   Overcast
10:35 AM 42.8 °F 32.7 °F 37.4 °F 81% 30.05 in 10.0 mi ESE 27.6 mph 34.5 mph N/A   Overcast
10:55 AM 42.8 °F 32.3 °F 37.4 °F 81% 30.04 in 10.0 mi SE 29.9 mph 33.4 mph N/A   Overcast
11:15 AM 42.8 °F 32.7 °F 35.6 °F 76% 30.04 in 10.0 mi SE 27.6 mph 40.3 mph N/A   Overcast
11:35 AM 42.8 °F 31.8 °F 35.6 °F 76% 30.04 in 10.0 mi SE 33.4 mph 43.7 mph N/A   Mostly Cloudy
11:55 AM 41.0 °F 30.5 °F 35.6 °F 81% 30.04 in 10.0 mi SE 26.5 mph 39.1 mph N/A Rain Light Rain
12:15 PM 41.0 °F 29.5 °F 35.6 °F 81% 30.03 in 10.0 mi ESE 32.2 mph 42.6 mph N/A   Overcast
12:35 PM 41.0 °F 30.5 °F 35.6 °F 81% 30.02 in 10.0 mi SE 26.5 mph 38.0 mph N/A   Overcast
12:55 PM 41.0 °F 29.8 °F 35.6 °F 81% 30.00 in 10.0 mi ESE 29.9 mph 35.7 mph N/A   Overcast
1:15 PM 41.0 °F 31.1 °F 35.6 °F 81% 29.99 in 10.0 mi SE 23.0 mph 32.2 mph N/A   Overcast
1:35 PM 41.0 °F 30.5 °F 35.6 °F 81% 29.98 in 10.0 mi SE 26.5 mph 36.8 mph N/A   Overcast
1:55 PM 41.0 °F 30.9 °F 35.6 °F 81% 29.97 in 10.0 mi ESE 24.2 mph 32.2 mph N/A   Overcast
2:15 PM 41.0 °F 30.7 °F 35.6 °F 81% 29.96 in 7.0 mi ESE 25.3 mph 33.4 mph N/A   Overcast
2:55 PM 39.2 °F 28.5 °F 35.6 °F 87% 29.94 in 2.5 mi ESE 24.2 mph 28.8 mph N/A   Overcast
3:15 PM 39.2 °F 28.7 °F 35.6 °F 87% 29.92 in 5.0 mi ESE 23.0 mph 26.5 mph N/A   Overcast
3:35 PM 37.4 °F 26.6 °F 35.6 °F 93% 29.92 in 3.0 mi ESE 21.9 mph 26.5 mph N/A   Overcast
3:55 PM 37.4 °F 26.9 °F 35.6 °F 93% 29.91 in 2.0 mi ESE 20.7 mph - N/A Snow Light Snow
4:15 PM 37.4 °F 27.5 °F 35.6 °F 93% 29.91 in 2.5 mi ESE 18.4 mph - N/A   Overcast
4:35 PM 39.2 °F 29.8 °F 35.6 °F 87% 29.89 in 2.0 mi ESE 18.4 mph 23.0 mph N/A   Unknown
4:55 PM 39.2 °F 29.0 °F 35.6 °F 87% 29.88 in 2.5 mi ESE 21.9 mph 25.3 mph N/A   Overcast
5:15 PM 39.2 °F 29.3 °F 35.6 °F 87% 29.87 in 1.8 mi ESE 20.7 mph 25.3 mph N/A   Unknown
5:35 PM 37.4 °F 26.4 °F 35.6 °F 93% 29.87 in 1.5 mi ESE 23.0 mph 27.6 mph N/A Snow Light Snow
6:15 PM 37.4 °F 27.2 °F 35.6 °F 93% 29.88 in 1.5 mi ESE 19.6 mph - N/A Snow Light Snow
6:35 PM 37.4 °F 27.5 °F 35.6 °F 93% 29.88 in 1.2 mi ESE 18.4 mph 23.0 mph N/A Snow Light Snow
6:55 PM 37.4 °F 27.5 °F 35.6 °F 93% 29.88 in 1.2 mi ESE 18.4 mph 23.0 mph N/A Snow Light Snow
7:15 PM 37.4 °F 27.5 °F 35.6 °F 93% 29.87 in 1.8 mi ESE 18.4 mph 25.3 mph N/A Snow Light Snow
7:35 PM 37.4 °F 26.9 °F 35.6 °F 93% 29.88 in 1.5 mi ESE 20.7 mph 25.3 mph N/A Snow Light Snow
7:55 PM 37.4 °F 26.4 °F 35.6 °F 93% 29.87 in 1.8 mi ESE 23.0 mph 28.8 mph N/A Snow Light Snow
8:15 PM 37.4 °F 27.2 °F 35.6 °F 93% 29.87 in 2.5 mi ESE 19.6 mph 27.6 mph N/A   Overcast
8:35 PM 37.4 °F 26.4 °F 35.6 °F 93% 29.87 in 2.5 mi ESE 23.0 mph 26.5 mph N/A   Overcast
8:55 PM 37.4 °F 27.5 °F 35.6 °F 93% 29.87 in 2.5 mi ESE 18.4 mph 23.0 mph N/A   Overcast
9:15 PM 37.4 °F 27.8 °F 35.6 °F 93% 29.86 in 2.5 mi East 17.3 mph 24.2 mph N/A   Overcast
9:35 PM 35.6 °F 25.9 °F 35.6 °F 100% 29.86 in 2.0 mi East 16.1 mph 24.2 mph N/A   Overcast
9:55 PM 35.6 °F 25.5 °F 33.8 °F 93% 29.87 in 2.0 mi ESE 17.3 mph 24.2 mph N/A   Overcast
10:15 PM 35.6 °F 25.5 °F 33.8 °F 93% 29.86 in 1.2 mi East 17.3 mph 25.3 mph N/A Snow Light Snow
10:35 PM 35.6 °F 25.5 °F 33.8 °F 93% 29.85 in 1.5 mi ESE 17.3 mph 21.9 mph N/A Snow Light Snow
10:55 PM 35.6 °F 25.5 °F 33.8 °F 93% 29.84 in 1.5 mi ESE 17.3 mph 23.0 mph N/A Snow Light Snow
11:15 PM 35.6 °F 26.6 °F 33.8 °F 93% 29.82 in 1.5 mi ESE 13.8 mph 19.6 mph N/A   Overcast
11:35 PM 35.6 °F 24.8 °F 33.8 °F 93% 29.79 in 1.8 mi ESE 19.6 mph 24.2 mph N/A Snow Light Snow
11:55 PM 35.6 °F 24.2 °F 33.8 °F 93% 29.73 in 1.8 mi East 21.9 mph - N/A   Overcast